Weather History for KEUG - October, 2011

Change the Weather History Date:

Saturday, October 15, 2011

  Actual Average Record
Temperature  
Mean Temperature 53 °F 53 °F  
Max Temperature 57 °F 65 °F 88 °F (1991)
Min Temperature 49 °F 41 °F 30 °F (1992)
Degree Days  
Heating Degree Days 12 12  
Month to date heating degree days 130 150  
Since 1 July heating degree days 254 338  
Cooling Degree Days 0 0  
Month to date cooling degree days 0 0  
Year to date cooling degree days 231 238  
Growing Degree Days 4 (Base 50)    
Moisture  
Dew Point 50 °F    
Average Humidity 90    
Maximum Humidity 96    
Minimum Humidity 83    
Precipitation  
Precipitation 0.00 in 0.09 in 3.01 in (1947)
Month to date precipitation 1.71 1.06  
Year to date precipitation 23.61 28.36  
Snow  
Snow 0.00 in - - ()
Month to date snowfall 0.0  
Since 1 July snowfall 0.0  
Since 1 September snowfall 0.0  
Snow Depth 0.00 in    
Sea Level Pressure  
Sea Level Pressure 30.00 in    
Wind  
Wind Speed 6 mph (North)    
Max Wind Speed 13 mph    
Max Gust Speed 31 mph    
Visibility 6 miles    
Events Rain    
T = Trace of Precipitation, MM = Missing Value Source: NWS Daily Summary

Daily Weather History Graph

Daily Weather History Graph

Search for Another Location

Airport or City:

Trip Planner

Search our weather history database for the weather conditions in past years. The results will help you decide how hot, cold, wet, or windy it might be!

Date:

Astronomy

Oct. 15, 2011 Rise Set
Actual Time 7:27 AM PDT 6:29 PM PDT
Civil Twilight 6:58 AM PDT 6:58 PM PDT
Nautical Twilight 6:24 AM PDT 7:31 PM PDT
Astronomical Twilight 5:51 AM PDT 8:05 PM PDT
Moon 8:21 PM PDT (10/15) 11:05 AM PDT (10/15)
Length of Visible Light 12h 00m
Length of Day
11h 01m
Waning Gibbous, 88% of the Moon is Illuminated
Oct 15
Waning Gibbous
Oct 19
Last Quarter
Oct 26
New
Nov 2
First Quarter
Nov 10
Full

Hourly Weather History & Observations

Time (PDT) Temp. Dew Point Humidity Pressure Visibility Wind Dir Wind Speed Gust Speed Precip Events Conditions
12:54 AM 51.1 °F 48.9 °F 92% 29.97 in 10.0 mi Calm Calm - N/A   Scattered Clouds
1:54 AM 50.0 °F 46.9 °F 89% 29.98 in 7.0 mi North 4.6 mph - N/A   Mostly Cloudy
2:32 AM 51.8 °F 48.2 °F 88% 29.98 in 9.0 mi NNE 3.5 mph - N/A   Overcast
2:54 AM 52.0 °F 48.9 °F 89% 29.98 in 8.0 mi North 4.6 mph - N/A   Mostly Cloudy
3:34 AM 51.8 °F 48.2 °F 88% 29.98 in 7.0 mi North 4.6 mph - N/A   Scattered Clouds
3:54 AM 50.0 °F 48.0 °F 93% 29.98 in 9.0 mi North 4.6 mph - N/A   Partly Cloudy
4:54 AM 50.0 °F 48.0 °F 93% 29.99 in 8.0 mi North 5.8 mph - N/A   Clear
5:54 AM 51.8 °F 48.2 °F 88% 29.99 in 8.0 mi North 5.8 mph - N/A   Partly Cloudy
6:24 AM 51.8 °F 48.2 °F 88% 30.01 in 8.0 mi North 3.5 mph - N/A   Scattered Clouds
6:32 AM 51.8 °F 50.0 °F 94% 30.01 in 8.0 mi Calm Calm - N/A   Mostly Cloudy
6:54 AM 52.0 °F 50.0 °F 93% 30.01 in 9.0 mi North 4.6 mph - N/A   Overcast
7:54 AM 53.6 °F 50.0 °F 88% 30.01 in 7.0 mi North 6.9 mph - N/A   Overcast
8:54 AM 53.1 °F 50.0 °F 89% 30.02 in 6.0 mi NNE 10.4 mph - N/A   Overcast
9:54 AM 53.1 °F 51.1 °F 93% 30.03 in 5.0 mi North 8.1 mph - N/A   Overcast
10:43 AM 53.6 °F 51.8 °F 94% 30.02 in 3.0 mi North 6.9 mph - N/A   Overcast
10:50 AM 53.6 °F 51.8 °F 94% 30.02 in 2.5 mi North 6.9 mph - N/A   Overcast
10:54 AM 54.0 °F 51.1 °F 90% 30.02 in 2.5 mi North 5.8 mph - N/A   Overcast
11:34 AM 53.6 °F 51.8 °F 94% 30.02 in 2.5 mi NNE 5.8 mph - N/A   Overcast
11:54 AM 54.0 °F 51.1 °F 90% 30.02 in 2.5 mi North 5.8 mph - N/A   Overcast
12:31 PM 53.6 °F 51.8 °F 94% 30.02 in 2.5 mi North 5.8 mph - N/A   Haze
12:54 PM 55.0 °F 51.1 °F 86% 30.02 in 2.5 mi North 8.1 mph - N/A   Haze
1:12 PM 55.4 °F 51.8 °F 88% 30.01 in 2.5 mi NNE 8.1 mph - N/A   Haze
1:54 PM 55.9 °F 51.1 °F 84% 30.00 in 3.0 mi NNE 5.8 mph - N/A   Haze
2:54 PM 55.4 °F 51.8 °F 88% 29.98 in 6.0 mi North 9.2 mph - N/A   Haze
3:42 PM 57.2 °F 51.8 °F 82% 29.97 in 6.0 mi North 9.2 mph - N/A   Haze
3:54 PM 55.9 °F 51.1 °F 84% 29.97 in 6.0 mi North 9.2 mph - N/A   Haze
4:25 PM 55.4 °F 51.8 °F 88% 29.96 in 6.0 mi NNE 10.4 mph - N/A   Haze
4:54 PM 55.4 °F 51.8 °F 88% 29.97 in 6.0 mi North 6.9 mph - N/A   Haze
5:20 PM 55.4 °F 51.8 °F 88% 29.97 in 10.0 mi North 9.2 mph - N/A   Overcast
5:54 PM 55.0 °F 50.0 °F 83% 29.99 in 8.0 mi North 9.2 mph - N/A   Overcast
6:29 PM 53.6 °F 50.0 °F 88% 29.98 in 6.0 mi North 6.9 mph - N/A   Overcast
6:54 PM 54.0 °F 51.1 °F 90% 29.99 in 6.0 mi North 5.8 mph - N/A   Mostly Cloudy
7:54 PM 53.1 °F 51.1 °F 93% 29.99 in 6.0 mi Calm Calm - 0.00 in   Overcast
8:54 PM 54.0 °F 51.1 °F 90% 30.01 in 6.0 mi WSW 5.8 mph - 0.00 in Rain Light Rain
9:54 PM 54.0 °F 51.1 °F 90% 30.00 in 6.0 mi Calm Calm - 0.00 in Rain Light Rain
10:54 PM 53.1 °F 52.0 °F 96% 30.00 in 5.0 mi Calm Calm - 0.03 in Rain Rain
11:34 PM 53.6 °F 51.8 °F 94% 29.99 in 5.0 mi SSW 3.5 mph - 0.01 in   Mostly Cloudy
11:47 PM 51.8 °F 50.0 °F 94% 29.99 in 4.0 mi Calm Calm - 0.01 in   Mostly Cloudy
11:54 PM 51.1 °F 50.0 °F 96% 30.01 in 3.0 mi West 3.5 mph - 0.01 in   Mostly Cloudy